Weather in Novaya Derevnya

Russia / Kaliningrad Oblast     54°44′59″N   21°15′42″E
temp.,
°C
wind,
m/s
gust,
m/s
humid.,
%
clouds,
%
prec.,
mm/h
press.,
hPa
HPBL,
m
18 april, sun
sun1823:00+8ne23908 0.0 102147
02:00+7ene249398 0.0 102181
05:00+6ne379596 0.0 1021133
08:00+10ene498386 0.0 1021349
11:00+15e466446 0.0 10211124
14:00+16ene3662100 0.2 10201491
17:00+17ene366216 0.6 1020884
20:00+11ene38855 1.1 1021149
19 april, mon
mon1923:00+9ene39875 0.0 1021194
02:00+7e36884 0.0 1022111
05:00+6ene36883 0.0 1021108
08:00+10e34790 0.0 1022260
11:00+14e34601 0.1 10211137
14:00+16e444584 0.6 10202086
17:00+13ene575732 0.1 10201040
20:00+10ene4107014 0.1 1020398
20 april, tue
tue2023:00+8e268798 0.2 1020180
02:00+5e23927 0.2 102049
05:00+7ne2382100 0.0 101995
08:00+9ne257698 0.0 1018281
11:00+11ne2471100 1.0 1017597
14:00+11nne2368100 1.7 1016689
17:00+11n346695 0.1 1015737
20:00+7nnw228543 0.2 101517
21 april, wed
wed2123:00+5wnw228666 0.0 101413
02:00+4w238995 0.0 101343
05:00+4wnw259369 0.0 101295
08:00+8wnw35697 0.0 1011323
11:00+12nw34525 0.0 10111260
14:00+12nw455590 0.1 10101435
17:00+11nw45586 0.1 10101109
20:00+6nnw118631 0.1 101010
22 april, thu
thu2223:00+5sw228814 0.0 101024
02:00+6w4782100 0.1 1011778
05:00+4s2495100 2.4 1011235
08:00+5wsw35815 2.4 1013601
11:00+8sw455520 0.4 10141568
14:00+9wsw454898 0.4 10161698
17:00+8nw336464 0.8 1018980
20:00+3nne249226 1.1 101974